DW2715 Weather Reports


time (UTC)temp
C
wind
direction
speed
KPH
gust
KPH
rain 1hr
cm
rain 24hr
cm
rain mn
cm
humidity
%
barometer
mb
20260506224404 13 27 0.0 0.0 0.00 0.69 0.00 91 1011.1
20260506223402 13 27 0.0 3.2 0.00 0.69 0.00 91 1011.2
20260506222903 13 27 0.0 0.0 0.00 0.69 0.00 91 1011.2
20260506222402 14 27 0.0 0.0 0.00 0.69 0.00 91 1011.2
20260506221902 14 27 0.0 0.0 0.00 0.69 0.00 91 1011.2
20260506221404 14 27 0.0 0.0 0.00 0.69 0.00 90 1011.1
20260506220903 14 27 0.0 0.0 0.00 0.69 0.00 90 1011.1
20260506215902 14 27 0.0 0.0 0.00 0.69 0.69 90 1011.1
20260506215402 14 27 0.0 0.0 0.00 0.69 0.69 90 1011.1
20260506214903 14 27 0.0 0.0 0.00 0.69 0.69 91 1011.1
20260506214403 14 27 0.0 0.0 0.00 0.69 0.69 90 1011.0
20260506213903 14 27 0.0 0.0 0.00 0.69 0.69 90 1010.9
20260506212902 15 27 0.0 3.2 0.00 0.69 0.69 90 1011.0
20260506212404 15 27 0.0 3.2 0.00 0.69 0.69 90 1011.0
20260506211902 15 27 0.0 0.0 0.00 0.69 0.69 90 1011.0
20260506211402 15 33 0.0 0.0 0.00 0.69 0.69 90 1011.0
20260506205403 15 32 1.6 4.8 0.00 0.69 0.69 90 1010.8
20260506204902 15 33 1.6 4.8 0.00 0.69 0.69 90 1010.8
20260506204404 15 32 0.0 3.2 0.00 0.69 0.69 89 1010.8
20260506203902 15 33 0.0 3.2 0.00 0.69 0.69 89 1010.8
20260506202904 15 33 1.6 3.2 0.00 0.69 0.69 89 1010.8
20260506202402 15 33 1.6 6.4 0.00 0.69 0.69 89 1010.8
20260506201902 15 33 1.6 6.4 0.00 0.69 0.69 89 1010.8
20260506201403 15 32 1.6 4.8 0.00 0.69 0.69 89 1010.7
20260506195903 16 59 0.0 3.2 0.00 0.69 0.69 88 1010.5
20260506194903 16 59 1.6 4.8 0.00 0.69 0.69 88 1010.4
20260506194404 16 61 1.6 4.8 0.00 0.69 0.69 88 1010.3
20260506193904 16 5 1.6 6.4 0.00 0.69 0.69 88 1010.3
20260506193403 16 61 4.8 9.7 0.00 0.69 0.69 88 1010.2
20260506192900 16 47 4.8 9.7 0.00 0.69 0.69 88 1010.2
20260506192354 16 27 4.8 8.0 0.00 0.69 0.69 88 1010.1
20260506191848 16 51 3.2 8.0 0.00 0.69 0.69 87 1010.1
20260506191344 16 15 1.6 6.4 0.00 0.69 0.69 87 1010.2
20260506190840 16 355 1.6 6.4 0.00 0.69 0.69 87 1010.1
20260506190336 16 355 3.2 6.4 0.00 0.69 0.69 87 1010.0
20260506185835 16 355 3.2 6.4 0.00 0.69 0.69 87 1009.9
20260506185335 16 343 1.6 6.4 0.00 0.69 0.69 87 1010.0
20260506184832 16 96 1.6 4.8 0.00 0.69 0.69 87 1009.9
20260506184331 16 96 3.2 6.4 0.00 0.69 0.69 87 1009.9
20260506183832 16 33 3.2 6.4 0.00 0.69 0.69 87 1009.8
20260506183331 16 42 3.2 6.4 0.00 0.69 0.69 87 1009.8
20260506182833 16 48 3.2 6.4 0.00 0.69 0.69 87 1009.7
20260506182330 16 355 1.6 4.8 0.00 0.69 0.69 86 1009.7
20260506181333 16 355 4.8 8.0 0.00 0.69 0.69 86 1009.6
20260506180832 16 5 4.8 9.7 0.00 0.69 0.69 86 1009.6
20260506180331 16 25 3.2 9.7 0.00 0.69 0.69 85 1009.3
20260506175834 16 90 3.2 8.0 0.00 0.69 0.69 85 1009.2
20260506175331 17 114 3.2 6.4 0.00 0.69 0.69 85 1009.4
20260506174830 17 118 3.2 6.4 0.00 0.69 0.69 85 1009.4
20260506174331 17 139 3.2 8.0 0.00 0.69 0.69 85 1009.3
20260506173831 17 99 3.2 9.7 0.00 0.69 0.69 85 1009.3
20260506173332 17 115 3.2 9.7 0.00 0.69 0.69 84 1009.2
20260506172830 17 95 1.6 4.8 0.00 0.69 0.69 85 1009.3
20260506172331 17 90 1.6 4.8 0.00 0.69 0.69 85 1009.3
20260506171832 17 90 1.6 4.8 0.00 0.69 0.69 84 1009.3
20260506171331 17 89 1.6 4.8 0.00 0.69 0.69 84 1009.2
20260506170831 17 74 1.6 4.8 0.00 0.69 0.69 84 1009.2
20260506170331 17 74 3.2 6.4 0.00 0.69 0.69 84 1009.2
20260506165331 17 24 3.2 4.8 0.00 0.69 0.69 83 1009.1
20260506164330 17 32 3.2 6.4 0.00 0.69 0.69 82 1009.2
20260506163827 17 30 1.6 4.8 0.00 0.69 0.69 81 1009.2
20260506163329 17 126 1.6 6.4 0.00 0.69 0.69 81 1009.1
20260506162824 17 126 3.2 8.0 0.00 0.69 0.69 80 1009.2
20260506162323 18 126 3.2 8.0 0.00 0.69 0.69 80 1009.2
20260506161823 18 107 3.2 8.0 0.00 0.69 0.69 80 1009.3
20260506161324 18 115 4.8 9.7 0.00 0.69 0.69 79 1009.4
20260506160823 18 140 3.2 9.7 0.00 0.69 0.69 79 1009.5
20260506160323 18 140 3.2 8.0 0.00 0.69 0.69 80 1009.4
20260506155323 18 167 3.2 6.4 0.00 0.69 0.69 82 1009.4
20260506154823 18 146 3.2 6.4 0.00 0.69 0.69 84 1009.5
20260506154319 17 84 3.2 8.0 0.00 0.69 0.69 85 1009.4
20260506153820 17 121 4.8 8.0 0.00 0.69 0.69 85 1009.3
20260506153320 17 159 4.8 9.7 0.00 0.69 0.69 86 1009.2
20260506152319 17 138 4.8 9.7 0.00 0.69 0.69 86 1009.2
20260506151819 17 157 4.8 9.7 0.00 0.69 0.69 86 1009.3
20260506150819 16 105 4.8 11.3 0.00 0.69 0.69 86 1009.4
20260506150328 16 165 4.8 11.3 0.00 0.69 0.69 87 1009.4
20260506145817 16 138 4.8 11.3 0.00 0.69 0.69 88 1009.4
20260506145318 16 65 3.2 11.3 0.00 0.69 0.69 88 1009.4
20260506144815 16 137 4.8 9.7 0.00 0.69 0.69 89 1009.4
20260506144315 15 92 4.8 11.3 0.00 0.69 0.69 89 1009.5
20260506143815 15 159 4.8 11.3 0.00 0.69 0.69 89 1009.5
20260506143313 15 109 4.8 14.5 0.00 0.69 0.69 90 1009.6
20260506141811 15 95 8.0 16.1 0.00 0.69 0.69 90 1009.4
20260506141311 16 125 6.4 16.1 0.00 0.69 0.69 90 1009.4
20260506140811 16 64 6.4 14.5 0.03 0.69 0.69 91 1009.5
20260506135808 16 94 4.8 12.9 0.18 0.69 0.69 91 1009.7
20260506134807 16 75 4.8 12.9 0.41 0.69 0.69 90 1009.5
20260506134307 16 87 4.8 12.9 0.43 0.69 0.69 90 1009.5
20260506133807 16 80 3.2 12.9 0.43 0.69 0.69 90 1009.7
20260506132807 16 58 4.8 11.3 0.46 0.69 0.69 90 1009.8
20260506132307 16 97 6.4 14.5 0.46 0.69 0.69 90 1009.9
20260506131805 16 93 6.4 14.5 0.46 0.69 0.69 89 1009.9
20260506131306 16 108 4.8 12.9 0.46 0.69 0.69 89 1009.9
20260506130805 16 108 4.8 11.3 0.43 0.66 0.66 89 1010.1
20260506130305 16 105 3.2 11.3 0.38 0.61 0.58 88 1010.1
20260506125803 16 140 4.8 12.9 0.28 0.51 0.48 88 1010.2
20260506125306 16 86 6.4 12.9 0.15 0.36 0.33 87 1010.2
20260506124302 16 114 4.8 11.3 0.03 0.23 0.23 87 1010.3
20260506123803 16 80 4.8 11.3 0.03 0.23 0.23 87 1010.2
20260506122805 16 150 4.8 14.5 0.00 0.23 0.23 87 1010.0
20260506122305 16 98 4.8 14.5 0.00 0.23 0.23 86 1010.0
20260506121807 16 81 4.8 12.9 0.00 0.23 0.23 86 1010.0
20260506121302 16 71 4.8 12.9 0.00 0.23 0.23 86 1010.1
20260506120803 16 86 4.8 16.1 0.00 0.23 0.23 85 1010.2
20260506120302 16 128 6.4 16.1 0.00 0.23 0.23 85 1010.2
20260506115802 16 113 6.4 14.5 0.00 0.23 0.23 84 1010.3
20260506115306 17 101 6.4 14.5 0.00 0.23 0.23 84 1010.4
20260506114805 17 132 4.8 12.9 0.00 0.23 0.23 83 1010.4
20260506113802 17 78 6.4 12.9 0.00 0.23 0.23 83 1010.5
20260506113302 17 98 6.4 12.9 0.00 0.23 0.23 83 1010.5
20260506112803 17 128 6.4 12.9 0.00 0.23 0.23 83 1010.6
20260506112305 17 134 4.8 12.9 0.00 0.23 0.23 84 1010.6
20260506111802 17 126 4.8 11.3 0.00 0.23 0.23 84 1010.7
20260506110803 17 117 3.2 12.9 0.00 0.23 0.23 87 1010.8
20260506110304 16 147 4.8 12.9 0.00 0.23 0.23 87 1010.8
20260506105802 16 146 6.4 12.9 0.00 0.23 0.23 87 1010.9
20260506105305 16 164 4.8 11.3 0.00 0.23 0.23 87 1011.0
20260506104802 16 130 4.8 11.3 0.00 0.23 0.23 87 1011.1
20260506104300 16 121 4.8 11.3 0.00 0.23 0.23 87 1011.1
20260506103248 16 101 6.4 16.1 0.00 0.23 0.23 87 1010.9
20260506102747 15 90 4.8 14.5 0.00 0.23 0.23 87 1010.9
20260506102246 15 110 4.8 11.3 0.03 0.23 0.23 87 1011.0
20260506101747 15 118 4.8 9.7 0.03 0.23 0.23 87 1011.2
20260506101248 15 126 1.6 6.4 0.05 0.23 0.23 88 1011.3
20260506100746 15 128 1.6 6.4 0.05 0.23 0.23 88 1011.3
20260506100246 15 134 3.2 6.4 0.05 0.23 0.23 88 1011.3
20260506095746 15 108 3.2 9.7 0.05 0.23 0.23 88 1011.3
20260506095247 15 162 4.8 12.9 0.05 0.23 0.23 88 1011.3
20260506094746 15 118 3.2 12.9 0.05 0.23 0.23 88 1011.2
20260506094246 16 123 1.6 12.9 0.05 0.23 0.23 87 1011.3
20260506093746 16 146 3.2 11.3 0.05 0.23 0.23 87 1011.3
20260506092249 16 131 0.0 6.4 0.03 0.23 0.20 87 1011.3
20260506091744 16 148 1.6 8.0 0.03 0.23 0.20 87 1011.3
20260506091242 16 148 1.6 8.0 0.00 0.20 0.18 87 1011.3
20260506090744 16 135 1.6 6.4 0.00 0.20 0.18 87 1011.3
20260506090238 16 161 1.6 6.4 0.00 0.23 0.18 88 1011.3
20260506085740 16 163 1.6 6.4 0.00 0.23 0.18 88 1011.2
20260506085239 16 163 1.6 6.4 0.03 0.23 0.18 88 1011.2
20260506084737 16 137 1.6 4.8 0.03 0.25 0.18 89 1011.0
20260506084237 16 137 0.0 4.8 0.03 0.25 0.18 89 1011.1
20260506083235 15 153 0.0 1.6 0.03 0.25 0.18 90 1010.9
20260506082735 16 152 0.0 1.6 0.03 0.25 0.18 91 1010.9
20260506082235 15 152 0.0 0.0 0.03 0.25 0.18 91 1010.9
20260506081735 15 152 0.0 0.0 0.03 0.25 0.18 91 1010.9
20260506080734 15 152 0.0 3.2 0.03 0.25 0.18 91 1011.0
20260506080231 15 152 0.0 3.2 0.03 0.25 0.18 91 1010.9
20260506072731 15 146 0.0 3.2 0.00 0.23 0.15 92 1011.2
20260506071732 15 123 0.0 1.6 0.00 0.23 0.15 92 1011.1
20260506071232 14 70 0.0 0.0 0.00 0.23 0.15 92 1011.1
20260506070732 14 70 0.0 0.0 0.00 0.23 0.15 92 1011.1
20260506070230 14 70 0.0 0.0 0.00 0.23 0.15 92 1011.2
20260506062232 13 74 0.0 0.0 0.00 0.23 0.15 92 1010.9
20260506061730 13 171 0.0 0.0 0.03 0.23 0.15 92 1011.0
20260506060730 13 172 0.0 0.0 0.03 0.23 0.15 92 1010.9
20260506050733 13 248 0.0 1.6 0.00 0.23 0.15 91 1011.4
20260506050231 13 248 0.0 3.2 0.00 0.23 0.15 91 1011.5
20260506044717 13 323 0.0 0.0 0.00 0.23 0.15 92 1011.5
20260506044211 13 323 0.0 1.6 0.00 0.23 0.15 92 1011.3
20260506043712 13 323 0.0 3.2 0.05 0.23 0.15 92 1011.3
20260506043211 13 323 1.6 4.8 0.05 0.23 0.15 92 1011.2
20260506042711 12 323 1.6 4.8 0.10 0.23 0.15 91 1011.0
20260506042212 12 10 3.2 11.3 0.13 0.23 0.15 91 1010.9
20260506041711 12 22 3.2 11.3 0.13 0.23 0.15 91 1010.7
20260506041215 12 28 3.2 6.4 0.15 0.23 0.15 91 1010.8
20260506040713 12 30 3.2 6.4 0.15 0.23 0.15 91 1010.8
20260506040209 12 336 3.2 8.0 0.15 0.23 0.15 91 1010.9
20260506035707 12 42 3.2 8.0 0.15 0.23 0.15 91 1010.8
20260506035208 12 20 3.2 8.0 0.15 0.23 0.15 91 1010.7
20260506034708 12 30 3.2 6.4 0.15 0.23 0.15 91 1010.9
20260506034205 12 0 3.2 6.4 0.15 0.23 0.15 91 1010.9
20260506033704 12 355 1.6 6.4 0.10 0.18 0.10 91 1011.0
20260506033205 13 206 1.6 4.8 0.08 0.15 0.08 91 1011.1
20260506032703 13 206 3.2 11.3 0.05 0.13 0.05 90 1011.3
20260506031703 13 242 0.0 4.8 0.03 0.10 0.00 91 1011.6
20260506031203 12 346 0.0 0.0 0.00 0.08 0.00 90 1011.6
20260506030659 12 346 0.0 0.0 0.00 0.08 0.00 90 1011.5
20260506030154 12 346 0.0 0.0 0.00 0.08 0.00 90 1011.4
20260506025148 12 346 0.0 0.0 0.00 0.08 0.00 90 1011.4
20260506024645 12 346 0.0 0.0 0.00 0.08 0.00 91 1011.5
20260506024145 12 346 0.0 4.8 0.00 0.08 0.00 91 1011.6
20260506023643 12 346 1.6 4.8 0.00 0.08 0.00 91 1011.6
20260506023139 12 342 3.2 6.4 0.00 0.08 0.00 91 1011.6
20260506022640 12 346 3.2 6.4 0.00 0.08 0.00 91 1011.7
20260506022140 12 346 1.6 4.8 0.00 0.08 0.00 91 1011.7
20260506021639 12 346 1.6 6.4 0.00 0.08 0.00 91 1011.7
20260506021139 12 347 1.6 6.4 0.00 0.08 0.00 91 1011.7
20260506020638 12 346 3.2 4.8 0.00 0.08 0.00 90 1011.9
20260506020139 12 344 1.6 4.8 0.00 0.08 0.00 90 1011.8
20260506015134 12 345 3.2 8.0 0.00 0.08 0.00 90 1012.0
20260506014130 12 15 3.2 8.0 0.00 0.08 0.00 90 1012.0
20260506013631 12 22 3.2 8.0 0.00 0.08 0.00 90 1012.0
20260506013131 12 351 3.2 8.0 0.00 0.08 0.00 91 1012.1
20260506012631 12 340 4.8 8.0 0.00 0.08 0.00 91 1012.0
20260506012127 12 355 3.2 8.0 0.00 0.08 0.00 91 1012.1
20260506011620 12 355 1.6 6.4 0.00 0.08 0.00 91 1012.2
20260506011123 12 30 1.6 4.8 0.00 0.08 0.00 91 1012.2
20260506010622 12 24 3.2 6.4 0.00 0.08 0.00 91 1012.2
20260506010121 12 20 3.2 8.0 0.00 0.08 0.00 90 1012.1
20260506005619 12 9 3.2 8.0 0.00 0.08 0.00 91 1012.2
20260506005119 12 17 3.2 8.0 0.00 0.08 0.00 91 1012.2
20260506004620 12 9 1.6 4.8 0.00 0.08 0.00 90 1012.2
20260506004120 12 9 0.0 4.8 0.00 0.08 0.00 90 1012.3
20260506003622 12 9 1.6 4.8 0.00 0.08 0.00 90 1012.4
20260506003119 12 9 1.6 4.8 0.00 0.08 0.00 90 1012.3
20260506002116 12 355 3.2 6.4 0.00 0.08 0.00 90 1012.3
20260506001615 12 345 1.6 4.8 0.00 0.08 0.00 90 1012.3
20260506001114 12 344 1.6 4.8 0.00 0.08 0.00 90 1012.3
20260506000615 12 343 1.6 4.8 0.00 0.08 0.00 90 1012.3
20260506000115 12 342 3.2 4.8 0.00 0.08 0.00 90 1012.4
20260505235616 13 30 1.6 4.8 0.00 0.08 0.00 90 1012.4
20260505235115 13 22 0.0 3.2 0.00 0.08 0.00 90 1012.4
20260505234615 13 22 1.6 4.8 0.00 0.08 0.00 90 1012.4
20260505234115 13 21 1.6 6.4 0.00 0.08 0.00 90 1012.4
20260505233611 13 16 1.6 8.0 0.00 0.08 0.00 90 1012.3
20260505233111 13 32 3.2 8.0 0.00 0.08 0.00 90 1012.3
20260505232612 13 338 3.2 6.4 0.00 0.08 0.00 90 1012.4
20260505232110 13 39 4.8 9.7 0.00 0.08 0.00 90 1012.5
20260505231609 13 60 4.8 12.9 0.00 0.08 0.00 90 1012.5
20260505231108 13 10 4.8 12.9 0.00 0.08 0.00 90 1012.5
20260505230605 13 51 4.8 12.9 0.00 0.08 0.00 90 1012.6
20260505225602 12 13 4.8 8.0 0.00 0.08 0.00 90 1012.7
20260505225103 13 0 4.8 8.0 0.00 0.08 0.00 90 1012.7